Location: Darmstadt
(49.8706°N, 8.6494°E)
Time: 07:29:32
(UTC+01:00)

ADEOS Rocket - Pass Details

Date: 31 October 2020
Orbit: 859 x 1306 km, 98.7° (Epoch: 02 December)

Event Time Altitude Azimuth Distance (km) Brightness Sun altitude
Rises 17:49:13 0° 13° (NNE) 3,760 5.8 -7.8°
Reaches altitude 10° 17:51:36 10° 12° (NNE) 2,863 5.2 -8.2°
Maximum altitude 17:58:07 76° 289° (WNW) 1,166 3.6 -9.2°
Drops below altitude 10° 18:05:19 10° 205° (SSW) 3,154 6.2 -10.4°
Sets 18:08:04 0° 204° (SSW) 4,165 6.8 -10.8°
